User: anonymous   Login
Location: Kuppenheim
(48.8299°N, 8.2568°E)
Time: 11:28:12
(UTC+00:00)
Language:

FALCON 9 DEB - Orbit

View from above orbital plane
View from above orbital plane
View from above satellite
View from above satellite

Ground track
Ground track

The orbit data is extracted from the following two-line orbital elements,

1 46086U 20055BM  21270.87572491  .00035026  00000-0  29338-3 0  9995
2 46086  53.0066  50.8171 0010424 213.7107 146.3247 15.69589936 69755
Epoch (UTC): 27 September 2021 21:01:02
Eccentricity: 0.0010424
inclination: 53.0066°
perigee height: 353 km
apogee height: 367 km
right ascension of ascending node: 50.8171°
argument of perigee: 213.7107°
revolutions per day: 15.69589936
mean anomaly at epoch: 146.3247°
orbit number at epoch: 6975

The dashed part of the orbit path shows where the satellite is in the earth's shadow,  

DLR